Poplar Bluff, MO

5:35 PM CDT on July 25, 2016 (GMT -0500)
Poplar Bluff Municipal

Weather History for KPOF - September, 2013

Change the Weather History Date:

Friday, September 6, 2013

  Actual Average Record
Temperature  
Mean Temperature 76 °F -  
Max Temperature 88 °F 85 °F 105 °F (1925)
Min Temperature 64 °F 62 °F 45 °F (1953)
Cooling Degree Days 10    
Growing Degree Days 26 (Base 50)    
Moisture  
Dew Point 65 °F    
Average Humidity 75    
Maximum Humidity 94    
Minimum Humidity 49    
Precipitation  
Precipitation 0.00 in - - ()
Sea Level Pressure  
Sea Level Pressure 30.10 in    
Wind  
Wind Speed 1 mph (SSW)    
Max Wind Speed 6 mph    
Max Gust Speed -    
Visibility 7 miles    
Events      
Averages and records for this station are not official NWS values.
T = Trace of Precipitation, MM = Missing Value Source: NWS Daily Summary

Daily Weather History Graph

Daily Weather History Graph

Search for Another Location

Airport or City:

Trip Planner

Search our weather history database for the weather conditions in past years. The results will help you decide how hot, cold, wet, or windy it might be!

Date:

Astronomy

Sep. 06, 2013 Rise Set
Actual Time 6:36 AM CDT 7:21 PM CDT
Civil Twilight 6:10 AM CDT 7:48 PM CDT
Nautical Twilight 5:39 AM CDT 8:19 PM CDT
Astronomical Twilight 5:07 AM CDT 8:50 PM CDT
Moon 7:45 AM CDT (9/6) 7:50 PM CDT (9/6)
Length of Visible Light 13h 37m
Length of Day
12h 45m
New Moon, 2% of the Moon is Illuminated
Sep 6
New Moon
Sep 12
First Quarter
Sep 19
Full
Sep 26
Last Quarter
Oct 4
New

Hourly Weather History & Observations

Time (CDT) Temp. Heat Index Dew Point Humidity Pressure Visibility Wind Dir Wind Speed Gust Speed Precip Events Conditions
12:53 AM 69.1 °F - 64.0 °F 84% 30.14 in 7.0 mi Calm Calm - N/A   Clear
1:53 AM 68.0 °F - 64.0 °F 87% 30.14 in 5.0 mi Calm Calm - N/A   Clear
2:53 AM 69.1 °F - 64.0 °F 84% 30.13 in 6.0 mi Calm Calm - N/A   Haze
3:53 AM 68.0 °F - 64.0 °F 87% 30.12 in 5.0 mi Calm Calm - N/A   Clear
4:53 AM 66.9 °F - 63.0 °F 87% 30.12 in 4.0 mi Calm Calm - N/A   Clear
5:53 AM 66.0 °F - 62.1 °F 87% 30.12 in 3.0 mi Calm Calm - N/A   Clear
6:39 AM 64.4 °F - 62.6 °F 94% 30.14 in 1.8 mi Calm Calm - N/A   Clear
6:48 AM 66.2 °F - 62.6 °F 88% 30.15 in 2.5 mi NW 3.5 mph - N/A   Clear
6:53 AM 66.0 °F - 63.0 °F 90% 30.14 in 3.0 mi Calm Calm - N/A   Clear
7:53 AM 70.0 °F - 64.9 °F 84% 30.14 in 4.0 mi Calm Calm - N/A   Haze
8:53 AM 73.9 °F - 66.0 °F 76% 30.15 in 6.0 mi Calm Calm - N/A   Haze
9:53 AM 78.1 °F - 66.9 °F 68% 30.16 in 9.0 mi Calm Calm - N/A   Clear
10:53 AM 81.0 °F 83.3 °F 66.9 °F 62% 30.16 in 10.0 mi ESE 4.6 mph - N/A   Clear
11:53 AM 84.0 °F 86.3 °F 66.0 °F 55% 30.15 in 10.0 mi SSE 5.8 mph - N/A   Clear
12:53 PM 84.9 °F 87.1 °F 66.0 °F 53% 30.13 in 10.0 mi Variable 3.5 mph - N/A   Clear
1:53 PM 86.0 °F 88.2 °F 66.0 °F 51% 30.11 in 10.0 mi SSW 4.6 mph - N/A   Clear
2:53 PM 87.1 °F 89.2 °F 66.0 °F 49% 30.09 in 10.0 mi Variable 3.5 mph - N/A   Clear
3:53 PM 86.0 °F 87.6 °F 64.9 °F 49% 30.06 in 10.0 mi Calm Calm - N/A   Clear
4:53 PM 86.0 °F 87.6 °F 64.9 °F 49% 30.06 in 10.0 mi SW 4.6 mph - N/A   Clear
5:53 PM 86.0 °F 87.6 °F 64.9 °F 49% 30.05 in 10.0 mi West 3.5 mph - N/A   Clear
6:53 PM 81.0 °F 84.4 °F 70.0 °F 69% 30.04 in 10.0 mi Calm Calm - N/A   Clear
7:53 PM 75.0 °F - 70.0 °F 84% 30.04 in 10.0 mi Calm Calm - N/A   Clear
8:53 PM 73.0 °F - 69.1 °F 87% 30.04 in 10.0 mi Calm Calm - N/A   Clear
9:53 PM 71.1 °F - 66.9 °F 87% 30.04 in 5.0 mi Calm Calm - N/A   Clear
10:53 PM 70.0 °F - 66.9 °F 90% 30.04 in 4.0 mi Calm Calm - N/A   Clear
11:43 PM 69.8 °F - 66.2 °F 88% 30.05 in 2.0 mi Calm Calm - N/A   Clear
11:53 PM 69.1 °F - 66.0 °F 90% 30.04 in 3.0 mi Calm Calm - N/A   Clear